M I D A S
Marine Information and Data Acquisition System
Tripno 1567 of the Zeeleeuw from 2008-09-16 07:08:45 to 2008-09-16 13:56:45
Back to CruiseResearch ActivitiesStationsMapUnderway DataData graphs

EquipmentUnitsComments
TimeDGPSUTC
LatitudeDGPSDM.mWGS84
LongitudeDGPSDM.mWGS84
SpeedMeteo Stationm/sRelative wind speed
DirectionMeteo StationdegRelative wind direction
TemperatureMeteo Stationdeg CelciusAir temperature
PressureMeteo StationPaAtmospheric pressure
HumidityMeteo Station%Relative humidity
Missing or incorrect values are displayed as -999
Metereological data collected by the RV Zeeleeuw from 2008-09-16 07:08:45 to 2008-09-16 13:56:45
                                                                                    Next 1000 lines
Time Latitude Longitude Speed Direction Temperature Pressure Humidity
2008-09-16 07:09:00 51°13.624 2°56.046 -999 -999 -999 -999 -999
2008-09-16 07:09:10 51°13.624 2°56.046 -999 -999 -999 -999 -999
2008-09-16 07:09:20 51°13.624 2°56.046 -999 -999 -999 -999 -999
2008-09-16 07:09:30 51°13.624 2°56.046 -999 -999 -999 -999 -999
2008-09-16 07:09:40 51°13.624 2°56.046 -999 -999 -999 -999 -999
2008-09-16 07:09:50 51°13.623 2°56.046 -999 -999 -999 -999 -999
2008-09-16 07:10:00 51°13.624 2°56.045 -999 -999 -999 -999 -999
2008-09-16 07:10:10 51°13.624 2°56.04 -999 -999 -999 -999 -999
2008-09-16 07:10:20 51°13.626 2°56.033 -999 -999 -999 -999 -999
2008-09-16 07:10:30 51°13.629 2°56.022 -999 -999 -999 -999 -999
2008-09-16 07:10:40 51°13.633 2°56.01 -999 -999 -999 -999 -999
2008-09-16 07:10:50 51°13.636 2°55.996 -999 -999 -999 -999 -999
2008-09-16 07:11:00 51°13.64 2°55.981 -999 -999 -999 -999 -999
2008-09-16 07:11:10 51°13.644 2°55.965 -999 -999 -999 -999 -999
2008-09-16 07:11:20 51°13.649 2°55.948 -999 -999 -999 -999 -999
2008-09-16 07:11:30 51°13.653 2°55.93 -999 -999 -999 -999 -999
2008-09-16 07:11:40 51°13.658 2°55.912 -999 -999 -999 -999 -999
2008-09-16 07:11:50 51°13.663 2°55.894 -999 -999 -999 -999 -999
2008-09-16 07:12:00 51°13.668 2°55.878 -999 -999 -999 -999 -999
2008-09-16 07:12:10 51°13.673 2°55.862 -999 -999 -999 -999 -999
2008-09-16 07:12:20 51°13.678 2°55.846 -999 -999 -999 -999 -999
2008-09-16 07:12:30 51°13.682 2°55.831 -999 -999 -999 -999 -999
2008-09-16 07:12:40 51°13.686 2°55.816 -999 -999 -999 -999 -999
2008-09-16 07:12:50 51°13.689 2°55.802 -999 -999 -999 -999 -999
2008-09-16 07:13:00 51°13.692 2°55.788 -999 -999 -999 -999 -999
2008-09-16 07:13:10 51°13.694 2°55.775 -999 -999 -999 -999 -999
2008-09-16 07:13:20 51°13.696 2°55.762 -999 -999 -999 -999 -999
2008-09-16 07:13:30 51°13.697 2°55.75 -999 -999 -999 -999 -999
2008-09-16 07:13:40 51°13.698 2°55.739 -999 -999 -999 -999 -999
2008-09-16 07:13:50 51°13.698 2°55.731 -999 -999 -999 -999 -999
2008-09-16 07:14:00 51°13.698 2°55.725 -999 -999 -999 -999 -999
2008-09-16 07:14:10 51°13.698 2°55.721 -999 -999 -999 -999 -999
2008-09-16 07:14:20 51°13.698 2°55.719 -999 -999 -999 -999 -999
2008-09-16 07:14:30 51°13.699 2°55.719 -999 -999 -999 -999 -999
2008-09-16 07:14:40 51°13.701 2°55.72 -999 -999 -999 -999 -999
2008-09-16 07:14:50 51°13.703 2°55.722 -999 -999 -999 -999 -999
2008-09-16 07:15:00 51°13.706 2°55.724 -999 -999 -999 -999 -999
2008-09-16 07:15:10 51°13.711 2°55.726 -999 -999 -999 -999 -999
2008-09-16 07:15:20 51°13.719 2°55.727 -999 -999 -999 -999 -999
2008-09-16 07:15:30 51°13.73 2°55.723 -999 -999 -999 -999 -999
2008-09-16 07:15:40 51°13.742 2°55.715 -999 -999 -999 -999 -999
2008-09-16 07:15:50 51°13.756 2°55.703 -999 -999 -999 -999 -999
2008-09-16 07:16:00 51°13.771 2°55.69 -999 -999 -999 -999 -999
2008-09-16 07:16:10 51°13.788 2°55.675 -999 -999 -999 -999 -999
2008-09-16 07:16:20 51°13.806 2°55.66 -999 -999 -999 -999 -999
2008-09-16 07:16:30 51°13.824 2°55.646 -999 -999 -999 -999 -999
2008-09-16 07:16:40 51°13.844 2°55.63 -999 -999 -999 -999 -999
2008-09-16 07:16:50 51°13.863 2°55.615 -999 -999 -999 -999 -999
2008-09-16 07:17:00 51°13.883 2°55.598 -999 -999 -999 -999 -999
2008-09-16 07:17:10 51°13.904 2°55.582 -999 -999 -999 -999 -999
2008-09-16 07:17:20 51°13.924 2°55.565 -999 -999 -999 -999 -999
2008-09-16 07:17:30 51°13.945 2°55.549 -999 -999 -999 -999 -999
2008-09-16 07:17:40 51°13.966 2°55.533 -999 -999 -999 -999 -999
2008-09-16 07:17:50 51°13.987 2°55.517 -999 -999 -999 -999 -999
2008-09-16 07:18:00 51°14.008 2°55.5 -999 -999 -999 -999 -999
2008-09-16 07:18:10 51°14.029 2°55.483 -999 -999 -999 -999 -999
2008-09-16 07:18:20 51°14.05 2°55.467 -999 -999 -999 -999 -999
2008-09-16 07:18:30 51°14.071 2°55.45 -999 -999 -999 -999 -999
2008-09-16 07:18:40 51°14.093 2°55.434 -999 -999 -999 -999 -999
2008-09-16 07:18:50 51°14.114 2°55.417 -999 -999 -999 -999 -999
2008-09-16 07:19:00 51°14.135 2°55.4 -999 -999 -999 -999 -999
2008-09-16 07:19:10 51°14.156 2°55.382 -999 -999 -999 -999 -999
2008-09-16 07:19:20 51°14.176 2°55.363 -999 -999 -999 -999 -999
2008-09-16 07:19:30 51°14.195 2°55.341 -999 -999 -999 -999 -999
2008-09-16 07:19:40 51°14.214 2°55.319 -999 -999 -999 -999 -999
2008-09-16 07:19:50 51°14.232 2°55.296 -999 -999 -999 -999 -999
2008-09-16 07:20:00 51°14.249 2°55.271 -999 -999 -999 -999 -999
2008-09-16 07:20:10 51°14.265 2°55.245 -999 -999 -999 -999 -999
2008-09-16 07:20:20 51°14.281 2°55.217 -999 -999 -999 -999 -999
2008-09-16 07:20:30 51°14.295 2°55.189 -999 -999 -999 -999 -999
2008-09-16 07:20:40 51°14.31 2°55.159 -999 -999 -999 -999 -999
2008-09-16 07:20:50 51°14.324 2°55.127 -999 -999 -999 -999 -999
2008-09-16 07:21:00 51°14.339 2°55.093 -999 -999 -999 -999 -999
2008-09-16 07:21:10 51°14.353 2°55.055 -999 -999 -999 -999 -999
2008-09-16 07:21:20 51°14.368 2°55.017 -999 -999 -999 -999 -999
2008-09-16 07:21:30 51°14.383 2°54.978 -999 -999 -999 -999 -999
2008-09-16 07:21:40 51°14.4 2°54.94 -999 -999 -999 -999 -999
2008-09-16 07:21:50 51°14.419 2°54.903 -999 -999 -999 -999 -999
2008-09-16 07:22:00 51°14.44 2°54.867 -999 -999 -999 -999 -999
2008-09-16 07:22:10 51°14.462 2°54.83 -999 -999 -999 -999 -999
2008-09-16 07:22:20 51°14.487 2°54.798 -999 -999 -999 -999 -999
2008-09-16 07:22:30 51°14.513 2°54.766 -999 -999 -999 -999 -999
2008-09-16 07:22:40 51°14.539 2°54.733 -999 -999 -999 -999 -999
2008-09-16 07:22:50 51°14.567 2°54.702 -999 -999 -999 -999 -999
2008-09-16 07:23:00 51°14.594 2°54.673 -999 -999 -999 -999 -999
2008-09-16 07:23:10 51°14.621 2°54.641 -999 -999 -999 -999 -999
2008-09-16 07:23:20 51°14.648 2°54.61 -999 -999 -999 -999 -999
2008-09-16 07:23:30 51°14.675 2°54.578 -999 -999 -999 -999 -999
2008-09-16 07:23:40 51°14.702 2°54.547 -999 -999 -999 -999 -999
2008-09-16 07:23:50 51°14.729 2°54.516 -999 -999 -999 -999 -999
2008-09-16 07:24:00 51°14.756 2°54.485 -999 -999 -999 -999 -999
2008-09-16 07:24:10 51°14.783 2°54.454 -999 -999 -999 -999 -999
2008-09-16 07:24:20 51°14.811 2°54.423 -999 -999 -999 -999 -999
2008-09-16 07:24:30 51°14.838 2°54.392 -999 -999 -999 -999 -999
2008-09-16 07:24:40 51°14.865 2°54.362 -999 -999 -999 -999 -999
2008-09-16 07:24:50 51°14.892 2°54.333 -999 -999 -999 -999 -999
2008-09-16 07:25:00 51°14.919 2°54.304 -999 -999 -999 -999 -999
2008-09-16 07:25:10 51°14.946 2°54.275 -999 -999 -999 -999 -999
2008-09-16 07:25:20 51°14.973 2°54.246 -999 -999 -999 -999 -999
2008-09-16 07:25:30 51°15 2°54.219 -999 -999 -999 -999 -999
2008-09-16 07:25:40 51°15.027 2°54.19 -999 -999 -999 -999 -999
2008-09-16 07:25:50 51°15.055 2°54.162 -999 -999 -999 -999 -999
2008-09-16 07:26:00 51°15.083 2°54.135 -999 -999 -999 -999 -999
2008-09-16 07:26:10 51°15.11 2°54.106 -999 -999 -999 -999 -999
2008-09-16 07:26:20 51°15.138 2°54.077 -999 -999 -999 -999 -999
2008-09-16 07:26:30 51°15.165 2°54.048 -999 -999 -999 -999 -999
2008-09-16 07:26:40 51°15.193 2°54.02 -999 -999 -999 -999 -999
2008-09-16 07:26:50 51°15.221 2°53.991 -999 -999 -999 -999 -999
2008-09-16 07:27:00 51°15.249 2°53.963 -999 -999 -999 -999 -999
2008-09-16 07:27:10 51°15.277 2°53.936 -999 -999 -999 -999 -999
2008-09-16 07:27:20 51°15.305 2°53.909 -999 -999 -999 -999 -999
2008-09-16 07:27:30 51°15.334 2°53.882 -999 -999 -999 -999 -999
2008-09-16 07:27:40 51°15.362 2°53.855 -999 -999 -999 -999 -999
2008-09-16 07:27:50 51°15.391 2°53.828 -999 -999 -999 -999 -999
2008-09-16 07:28:00 51°15.419 2°53.801 -999 -999 -999 -999 -999
2008-09-16 07:28:10 51°15.448 2°53.776 -999 -999 -999 -999 -999
2008-09-16 07:28:20 51°15.478 2°53.757 -999 -999 -999 -999 -999
2008-09-16 07:28:30 51°15.509 2°53.74 -999 -999 -999 -999 -999
2008-09-16 07:28:40 51°15.54 2°53.725 -999 -999 -999 -999 -999
2008-09-16 07:28:50 51°15.571 2°53.71 -999 -999 -999 -999 -999
2008-09-16 07:29:00 51°15.602 2°53.694 -999 -999 -999 -999 -999
2008-09-16 07:29:10 51°15.633 2°53.679 -999 -999 -999 -999 -999
2008-09-16 07:29:20 51°15.664 2°53.662 -999 -999 -999 -999 -999
2008-09-16 07:29:30 51°15.695 2°53.645 -999 -999 -999 -999 -999
2008-09-16 07:29:40 51°15.726 2°53.628 -999 -999 -999 -999 -999
2008-09-16 07:29:50 51°15.756 2°53.611 -999 -999 -999 -999 -999
2008-09-16 07:30:00 51°15.787 2°53.594 -999 -999 -999 -999 -999
2008-09-16 07:30:10 51°15.818 2°53.578 -999 -999 -999 -999 -999
2008-09-16 07:30:20 51°15.849 2°53.561 -999 -999 -999 -999 -999
2008-09-16 07:30:30 51°15.88 2°53.545 -999 -999 -999 -999 -999
2008-09-16 07:30:40 51°15.911 2°53.529 -999 -999 -999 -999 -999
2008-09-16 07:30:50 51°15.942 2°53.513 -999 -999 -999 -999 -999
2008-09-16 07:31:00 51°15.972 2°53.495 -999 -999 -999 -999 -999
2008-09-16 07:31:10 51°16.003 2°53.478 -999 -999 -999 -999 -999
2008-09-16 07:31:20 51°16.034 2°53.461 -999 -999 -999 -999 -999
2008-09-16 07:31:30 51°16.064 2°53.443 -999 -999 -999 -999 -999
2008-09-16 07:31:40 51°16.095 2°53.424 -999 -999 -999 -999 -999
2008-09-16 07:31:50 51°16.126 2°53.407 -999 -999 -999 -999 -999
2008-09-16 07:32:00 51°16.157 2°53.391 -999 -999 -999 -999 -999
2008-09-16 07:32:10 51°16.188 2°53.374 -999 -999 -999 -999 -999
2008-09-16 07:32:20 51°16.219 2°53.355 -999 -999 -999 -999 -999
2008-09-16 07:32:30 51°16.249 2°53.334 -999 -999 -999 -999 -999
2008-09-16 07:32:40 51°16.279 2°53.313 -999 -999 -999 -999 -999
2008-09-16 07:32:50 51°16.308 2°53.29 -999 -999 -999 -999 -999
2008-09-16 07:33:00 51°16.338 2°53.267 -999 -999 -999 -999 -999
2008-09-16 07:33:10 51°16.367 2°53.242 -999 -999 -999 -999 -999
2008-09-16 07:33:20 51°16.396 2°53.217 -999 -999 -999 -999 -999
2008-09-16 07:33:30 51°16.425 2°53.191 -999 -999 -999 -999 -999
2008-09-16 07:33:40 51°16.454 2°53.165 -999 -999 -999 -999 -999
2008-09-16 07:33:50 51°16.482 2°53.139 -999 -999 -999 -999 -999
2008-09-16 07:34:00 51°16.511 2°53.114 -999 -999 -999 -999 -999
2008-09-16 07:34:10 51°16.54 2°53.087 -999 -999 -999 -999 -999
2008-09-16 07:34:20 51°16.569 2°53.061 -999 -999 -999 -999 -999
2008-09-16 07:34:30 51°16.598 2°53.036 -999 -999 -999 -999 -999
2008-09-16 07:34:40 51°16.626 2°53.01 -999 -999 -999 -999 -999
2008-09-16 07:34:50 51°16.655 2°52.985 -999 -999 -999 -999 -999
2008-09-16 07:35:00 51°16.684 2°52.958 -999 -999 -999 -999 -999
2008-09-16 07:35:10 51°16.712 2°52.932 -999 -999 -999 -999 -999
2008-09-16 07:35:20 51°16.741 2°52.907 -999 -999 -999 -999 -999
2008-09-16 07:35:30 51°16.769 2°52.88 -999 -999 -999 -999 -999
2008-09-16 07:35:40 51°16.797 2°52.854 -999 -999 -999 -999 -999
2008-09-16 07:35:50 51°16.824 2°52.829 -999 -999 -999 -999 -999
2008-09-16 07:36:00 51°16.852 2°52.803 -999 -999 -999 -999 -999
2008-09-16 07:36:10 51°16.878 2°52.775 -999 -999 -999 -999 -999
2008-09-16 07:36:20 51°16.905 2°52.749 -999 -999 -999 -999 -999
2008-09-16 07:36:30 51°16.933 2°52.722 -999 -999 -999 -999 -999
2008-09-16 07:36:40 51°16.96 2°52.696 -999 -999 -999 -999 -999
2008-09-16 07:36:50 51°16.988 2°52.67 -999 -999 -999 -999 -999
2008-09-16 07:37:00 51°17.016 2°52.644 -999 -999 -999 -999 -999
2008-09-16 07:37:10 51°17.044 2°52.618 -999 -999 -999 -999 -999
2008-09-16 07:37:20 51°17.072 2°52.594 -999 -999 -999 -999 -999
2008-09-16 07:37:30 51°17.1 2°52.571 -999 -999 -999 -999 -999
2008-09-16 07:37:40 51°17.128 2°52.548 -999 -999 -999 -999 -999
2008-09-16 07:37:50 51°17.156 2°52.525 -999 -999 -999 -999 -999
2008-09-16 07:38:00 51°17.184 2°52.501 -999 -999 -999 -999 -999
2008-09-16 07:38:10 51°17.212 2°52.479 -999 -999 -999 -999 -999
2008-09-16 07:38:20 51°17.241 2°52.458 -999 -999 -999 -999 -999
2008-09-16 07:38:30 51°17.27 2°52.441 -999 -999 -999 -999 -999
2008-09-16 07:38:40 51°17.3 2°52.426 -999 -999 -999 -999 -999
2008-09-16 07:38:50 51°17.33 2°52.412 -999 -999 -999 -999 -999
2008-09-16 07:39:00 51°17.36 2°52.4 -999 -999 -999 -999 -999
2008-09-16 07:39:10 51°17.391 2°52.391 -999 -999 -999 -999 -999
2008-09-16 07:39:20 51°17.421 2°52.382 -999 -999 -999 -999 -999
2008-09-16 07:39:30 51°17.451 2°52.375 -999 -999 -999 -999 -999
2008-09-16 07:39:40 51°17.482 2°52.368 -999 -999 -999 -999 -999
2008-09-16 07:39:50 51°17.513 2°52.364 -999 -999 -999 -999 -999
2008-09-16 07:40:00 51°17.544 2°52.36 -999 -999 -999 -999 -999
2008-09-16 07:40:10 51°17.574 2°52.354 -999 -999 -999 -999 -999
2008-09-16 07:40:20 51°17.605 2°52.347 -999 -999 -999 -999 -999
2008-09-16 07:40:30 51°17.636 2°52.341 -999 -999 -999 -999 -999
2008-09-16 07:40:40 51°17.666 2°52.334 -999 -999 -999 -999 -999
2008-09-16 07:40:50 51°17.697 2°52.329 -999 -999 -999 -999 -999
2008-09-16 07:41:00 51°17.728 2°52.325 -999 -999 -999 -999 -999
2008-09-16 07:41:10 51°17.758 2°52.321 -999 -999 -999 -999 -999
2008-09-16 07:41:20 51°17.789 2°52.317 -999 -999 -999 -999 -999
2008-09-16 07:41:30 51°17.82 2°52.313 -999 -999 -999 -999 -999
2008-09-16 07:41:40 51°17.85 2°52.308 -999 -999 -999 -999 -999
2008-09-16 07:41:50 51°17.881 2°52.303 -999 -999 -999 -999 -999
2008-09-16 07:42:00 51°17.912 2°52.297 -999 -999 -999 -999 -999
2008-09-16 07:42:10 51°17.943 2°52.291 -999 -999 -999 -999 -999
2008-09-16 07:42:20 51°17.973 2°52.286 -999 -999 -999 -999 -999
2008-09-16 07:42:30 51°18.004 2°52.28 -999 -999 -999 -999 -999
2008-09-16 07:42:40 51°18.035 2°52.274 -999 -999 -999 -999 -999
2008-09-16 07:42:50 51°18.066 2°52.268 -999 -999 -999 -999 -999
2008-09-16 07:43:00 51°18.096 2°52.263 -999 -999 -999 -999 -999
2008-09-16 07:43:10 51°18.127 2°52.257 -999 -999 -999 -999 -999
2008-09-16 07:43:20 51°18.158 2°52.25 -999 -999 -999 -999 -999
2008-09-16 07:43:30 51°18.189 2°52.244 -999 -999 -999 -999 -999
2008-09-16 07:43:40 51°18.22 2°52.243 -999 -999 -999 -999 -999
2008-09-16 07:43:50 51°18.25 2°52.248 -999 -999 -999 -999 -999
2008-09-16 07:44:00 51°18.279 2°52.26 -999 -999 -999 -999 -999
2008-09-16 07:44:10 51°18.307 2°52.277 -999 -999 -999 -999 -999
2008-09-16 07:44:20 51°18.332 2°52.3 -999 -999 -999 -999 -999
2008-09-16 07:44:30 51°18.356 2°52.329 -999 -999 -999 -999 -999
2008-09-16 07:44:40 51°18.377 2°52.362 -999 -999 -999 -999 -999
2008-09-16 07:44:50 51°18.394 2°52.4 -999 -999 -999 -999 -999
2008-09-16 07:45:00 51°18.41 2°52.44 -999 -999 -999 -999 -999
2008-09-16 07:45:10 51°18.423 2°52.483 -999 -999 -999 -999 -999
2008-09-16 07:45:20 51°18.434 2°52.527 -999 -999 -999 -999 -999
2008-09-16 07:45:30 51°18.444 2°52.573 -999 -999 -999 -999 -999
2008-09-16 07:45:40 51°18.453 2°52.618 -999 -999 -999 -999 -999
2008-09-16 07:45:50 51°18.463 2°52.664 -999 -999 -999 -999 -999
2008-09-16 07:46:00 51°18.473 2°52.709 -999 -999 -999 -999 -999
2008-09-16 07:46:10 51°18.484 2°52.754 -999 -999 -999 -999 -999
2008-09-16 07:46:20 51°18.495 2°52.799 -999 -999 -999 -999 -999
2008-09-16 07:46:30 51°18.506 2°52.844 -999 -999 -999 -999 -999
2008-09-16 07:46:40 51°18.517 2°52.889 -999 -999 -999 -999 -999
2008-09-16 07:46:50 51°18.529 2°52.934 -999 -999 -999 -999 -999
2008-09-16 07:47:00 51°18.54 2°52.978 -999 -999 -999 -999 -999
2008-09-16 07:47:10 51°18.551 2°53.023 -999 -999 -999 -999 -999
2008-09-16 07:47:20 51°18.563 2°53.068 -999 -999 -999 -999 -999
2008-09-16 07:47:30 51°18.575 2°53.112 -999 -999 -999 -999 -999
2008-09-16 07:47:40 51°18.587 2°53.156 -999 -999 -999 -999 -999
2008-09-16 07:47:50 51°18.599 2°53.2 -999 -999 -999 -999 -999
2008-09-16 07:48:00 51°18.611 2°53.244 -999 -999 -999 -999 -999
2008-09-16 07:48:10 51°18.623 2°53.288 -999 -999 -999 -999 -999
2008-09-16 07:48:20 51°18.635 2°53.332 -999 -999 -999 -999 -999
2008-09-16 07:48:30 51°18.647 2°53.376 -999 -999 -999 -999 -999
2008-09-16 07:48:40 51°18.658 2°53.42 -999 -999 -999 -999 -999
2008-09-16 07:48:50 51°18.67 2°53.465 -999 -999 -999 -999 -999
2008-09-16 07:49:00 51°18.682 2°53.508 -999 -999 -999 -999 -999
2008-09-16 07:49:10 51°18.693 2°53.553 -999 -999 -999 -999 -999
2008-09-16 07:49:20 51°18.701 2°53.6 -999 -999 -999 -999 -999
2008-09-16 07:49:30 51°18.709 2°53.646 -999 -999 -999 -999 -999
2008-09-16 07:49:40 51°18.717 2°53.693 -999 -999 -999 -999 -999
2008-09-16 07:49:50 51°18.726 2°53.739 -999 -999 -999 -999 -999
2008-09-16 07:50:00 51°18.734 2°53.785 -999 -999 -999 -999 -999
2008-09-16 07:50:10 51°18.741 2°53.832 -999 -999 -999 -999 -999
2008-09-16 07:50:20 51°18.748 2°53.879 -999 -999 -999 -999 -999
2008-09-16 07:50:30 51°18.754 2°53.926 -999 -999 -999 -999 -999
2008-09-16 07:50:40 51°18.76 2°53.973 -999 -999 -999 -999 -999
2008-09-16 07:50:50 51°18.768 2°54.019 -999 -999 -999 -999 -999
2008-09-16 07:51:00 51°18.776 2°54.066 -999 -999 -999 -999 -999
2008-09-16 07:51:10 51°18.784 2°54.111 -999 -999 -999 -999 -999
2008-09-16 07:51:20 51°18.794 2°54.157 -999 -999 -999 -999 -999
2008-09-16 07:51:30 51°18.803 2°54.202 -999 -999 -999 -999 -999
2008-09-16 07:51:40 51°18.812 2°54.248 -999 -999 -999 -999 -999
2008-09-16 07:51:50 51°18.82 2°54.294 -999 -999 -999 -999 -999
2008-09-16 07:52:00 51°18.829 2°54.34 -999 -999 -999 -999 -999
2008-09-16 07:52:10 51°18.838 2°54.386 -999 -999 -999 -999 -999
2008-09-16 07:52:20 51°18.847 2°54.432 -999 -999 -999 -999 -999
2008-09-16 07:52:30 51°18.855 2°54.477 -999 -999 -999 -999 -999
2008-09-16 07:52:40 51°18.864 2°54.523 -999 -999 -999 -999 -999
2008-09-16 07:52:50 51°18.873 2°54.569 -999 -999 -999 -999 -999
2008-09-16 07:53:00 51°18.882 2°54.615 -999 -999 -999 -999 -999
2008-09-16 07:53:10 51°18.891 2°54.66 -999 -999 -999 -999 -999
2008-09-16 07:53:20 51°18.9 2°54.706 -999 -999 -999 -999 -999
2008-09-16 07:53:30 51°18.909 2°54.751 -999 -999 -999 -999 -999
2008-09-16 07:53:40 51°18.919 2°54.797 -999 -999 -999 -999 -999
2008-09-16 07:53:50 51°18.928 2°54.842 -999 -999 -999 -999 -999
2008-09-16 07:54:00 51°18.938 2°54.887 -999 -999 -999 -999 -999
2008-09-16 07:54:10 51°18.947 2°54.933 -999 -999 -999 -999 -999
2008-09-16 07:54:20 51°18.956 2°54.978 -999 -999 -999 -999 -999
2008-09-16 07:54:30 51°18.965 2°55.023 -999 -999 -999 -999 -999
2008-09-16 07:54:40 51°18.974 2°55.069 -999 -999 -999 -999 -999
2008-09-16 07:54:50 51°18.984 2°55.114 -999 -999 -999 -999 -999
2008-09-16 07:55:00 51°18.993 2°55.159 -999 -999 -999 -999 -999
2008-09-16 07:55:10 51°19.003 2°55.204 -999 -999 -999 -999 -999
2008-09-16 07:55:20 51°19.013 2°55.25 -999 -999 -999 -999 -999
2008-09-16 07:55:30 51°19.023 2°55.295 -999 -999 -999 -999 -999
2008-09-16 07:55:40 51°19.033 2°55.34 -999 -999 -999 -999 -999
2008-09-16 07:55:50 51°19.042 2°55.385 -999 -999 -999 -999 -999
2008-09-16 07:56:00 51°19.053 2°55.43 -999 -999 -999 -999 -999
2008-09-16 07:56:10 51°19.062 2°55.475 -999 -999 -999 -999 -999
2008-09-16 07:56:20 51°19.072 2°55.52 -999 -999 -999 -999 -999
2008-09-16 07:56:30 51°19.082 2°55.564 -999 -999 -999 -999 -999
2008-09-16 07:56:40 51°19.092 2°55.609 -999 -999 -999 -999 -999
2008-09-16 07:56:50 51°19.102 2°55.654 -999 -999 -999 -999 -999
2008-09-16 07:57:00 51°19.111 2°55.699 -999 -999 -999 -999 -999
2008-09-16 07:57:10 51°19.121 2°55.744 -999 -999 -999 -999 -999
2008-09-16 07:57:20 51°19.131 2°55.789 -999 -999 -999 -999 -999
2008-09-16 07:57:30 51°19.141 2°55.834 -999 -999 -999 -999 -999
2008-09-16 07:57:40 51°19.151 2°55.878 -999 -999 -999 -999 -999
2008-09-16 07:57:50 51°19.16 2°55.923 -999 -999 -999 -999 -999
2008-09-16 07:58:00 51°19.17 2°55.968 -999 -999 -999 -999 -999
2008-09-16 07:58:10 51°19.181 2°56.013 -999 -999 -999 -999 -999
2008-09-16 07:58:20 51°19.191 2°56.058 -999 -999 -999 -999 -999
2008-09-16 07:58:30 51°19.201 2°56.103 -999 -999 -999 -999 -999
2008-09-16 07:58:40 51°19.211 2°56.148 -999 -999 -999 -999 -999
2008-09-16 07:58:50 51°19.221 2°56.193 -999 -999 -999 -999 -999
2008-09-16 07:59:00 51°19.23 2°56.239 -999 -999 -999 -999 -999
2008-09-16 07:59:10 51°19.241 2°56.284 -999 -999 -999 -999 -999
2008-09-16 07:59:20 51°19.252 2°56.328 -999 -999 -999 -999 -999
2008-09-16 07:59:30 51°19.262 2°56.373 -999 -999 -999 -999 -999
2008-09-16 07:59:40 51°19.272 2°56.419 -999 -999 -999 -999 -999
2008-09-16 07:59:50 51°19.282 2°56.464 -999 -999 -999 -999 -999
2008-09-16 08:00:00 51°19.291 2°56.509 -999 -999 -999 -999 -999
2008-09-16 08:00:10 51°19.301 2°56.555 -999 -999 -999 -999 -999
2008-09-16 08:00:20 51°19.311 2°56.6 -999 -999 -999 -999 -999
2008-09-16 08:00:30 51°19.321 2°56.644 -999 -999 -999 -999 -999
2008-09-16 08:00:40 51°19.331 2°56.689 -999 -999 -999 -999 -999
2008-09-16 08:00:50 51°19.341 2°56.734 -999 -999 -999 -999 -999
2008-09-16 08:01:00 51°19.351 2°56.779 -999 -999 -999 -999 -999
2008-09-16 08:01:10 51°19.361 2°56.824 -999 -999 -999 -999 -999
2008-09-16 08:01:20 51°19.371 2°56.868 -999 -999 -999 -999 -999
2008-09-16 08:01:30 51°19.381 2°56.913 -999 -999 -999 -999 -999
2008-09-16 08:01:40 51°19.392 2°56.958 -999 -999 -999 -999 -999
2008-09-16 08:01:50 51°19.402 2°57.003 -999 -999 -999 -999 -999
2008-09-16 08:02:00 51°19.411 2°57.048 -999 -999 -999 -999 -999
2008-09-16 08:02:10 51°19.421 2°57.093 -999 -999 -999 -999 -999
2008-09-16 08:02:20 51°19.432 2°57.138 -999 -999 -999 -999 -999
2008-09-16 08:02:30 51°19.442 2°57.183 -999 -999 -999 -999 -999
2008-09-16 08:02:40 51°19.452 2°57.228 -999 -999 -999 -999 -999
2008-09-16 08:02:50 51°19.462 2°57.273 -999 -999 -999 -999 -999
2008-09-16 08:03:00 51°19.473 2°57.318 -999 -999 -999 -999 -999
2008-09-16 08:03:10 51°19.484 2°57.362 -999 -999 -999 -999 -999
2008-09-16 08:03:20 51°19.495 2°57.406 -999 -999 -999 -999 -999
2008-09-16 08:03:30 51°19.506 2°57.449 -999 -999 -999 -999 -999
2008-09-16 08:03:40 51°19.518 2°57.493 -999 -999 -999 -999 -999
2008-09-16 08:03:50 51°19.53 2°57.536 -999 -999 -999 -999 -999
2008-09-16 08:04:00 51°19.542 2°57.58 -999 -999 -999 -999 -999
2008-09-16 08:04:10 51°19.553 2°57.624 -999 -999 -999 -999 -999
2008-09-16 08:04:20 51°19.563 2°57.67 -999 -999 -999 -999 -999
2008-09-16 08:04:30 51°19.573 2°57.715 -999 -999 -999 -999 -999
2008-09-16 08:04:40 51°19.582 2°57.76 -999 -999 -999 -999 -999
2008-09-16 08:04:50 51°19.591 2°57.806 -999 -999 -999 -999 -999
2008-09-16 08:05:00 51°19.601 2°57.851 -999 -999 -999 -999 -999
2008-09-16 08:05:10 51°19.611 2°57.895 -999 -999 -999 -999 -999
2008-09-16 08:05:20 51°19.621 2°57.94 -999 -999 -999 -999 -999
2008-09-16 08:05:30 51°19.63 2°57.985 -999 -999 -999 -999 -999
2008-09-16 08:05:40 51°19.64 2°58.03 -999 -999 -999 -999 -999
2008-09-16 08:05:50 51°19.649 2°58.075 -999 -999 -999 -999 -999
2008-09-16 08:06:00 51°19.659 2°58.119 -999 -999 -999 -999 -999
2008-09-16 08:06:10 51°19.669 2°58.164 -999 -999 -999 -999 -999
2008-09-16 08:06:20 51°19.679 2°58.209 -999 -999 -999 -999 -999
2008-09-16 08:06:30 51°19.688 2°58.254 -999 -999 -999 -999 -999
2008-09-16 08:06:40 51°19.698 2°58.298 -999 -999 -999 -999 -999
2008-09-16 08:06:50 51°19.708 2°58.343 -999 -999 -999 -999 -999
2008-09-16 08:07:00 51°19.718 2°58.388 -999 -999 -999 -999 -999
2008-09-16 08:07:10 51°19.728 2°58.433 -999 -999 -999 -999 -999
2008-09-16 08:07:20 51°19.738 2°58.477 -999 -999 -999 -999 -999
2008-09-16 08:07:30 51°19.748 2°58.522 -999 -999 -999 -999 -999
2008-09-16 08:07:40 51°19.759 2°58.565 -999 -999 -999 -999 -999
2008-09-16 08:07:50 51°19.77 2°58.608 -999 -999 -999 -999 -999
2008-09-16 08:08:00 51°19.782 2°58.651 -999 -999 -999 -999 -999
2008-09-16 08:08:10 51°19.794 2°58.693 -999 -999 -999 -999 -999
2008-09-16 08:08:20 51°19.806 2°58.736 -999 -999 -999 -999 -999
2008-09-16 08:08:30 51°19.817 2°58.778 -999 -999 -999 -999 -999
2008-09-16 08:08:40 51°19.829 2°58.821 -999 -999 -999 -999 -999
2008-09-16 08:08:50 51°19.841 2°58.864 -999 -999 -999 -999 -999
2008-09-16 08:09:00 51°19.852 2°58.906 -999 -999 -999 -999 -999
2008-09-16 08:09:10 51°19.864 2°58.949 -999 -999 -999 -999 -999
2008-09-16 08:09:20 51°19.875 2°58.992 -999 -999 -999 -999 -999
2008-09-16 08:09:30 51°19.887 2°59.036 -999 -999 -999 -999 -999
2008-09-16 08:09:40 51°19.898 2°59.079 -999 -999 -999 -999 -999
2008-09-16 08:09:50 51°19.909 2°59.122 -999 -999 -999 -999 -999
2008-09-16 08:10:00 51°19.92 2°59.166 -999 -999 -999 -999 -999
2008-09-16 08:10:10 51°19.931 2°59.209 -999 -999 -999 -999 -999
2008-09-16 08:10:20 51°19.942 2°59.253 -999 -999 -999 -999 -999
2008-09-16 08:10:30 51°19.953 2°59.297 -999 -999 -999 -999 -999
2008-09-16 08:10:40 51°19.965 2°59.341 -999 -999 -999 -999 -999
2008-09-16 08:10:50 51°19.976 2°59.384 -999 -999 -999 -999 -999
2008-09-16 08:11:00 51°19.987 2°59.428 -999 -999 -999 -999 -999
2008-09-16 08:11:10 51°19.998 2°59.472 -999 -999 -999 -999 -999
2008-09-16 08:11:20 51°20.009 2°59.516 -999 -999 -999 -999 -999
2008-09-16 08:11:30 51°20.02 2°59.56 -999 -999 -999 -999 -999
2008-09-16 08:11:40 51°20.031 2°59.604 -999 -999 -999 -999 -999
2008-09-16 08:11:50 51°20.042 2°59.647 -999 -999 -999 -999 -999
2008-09-16 08:12:00 51°20.053 2°59.691 -999 -999 -999 -999 -999
2008-09-16 08:12:10 51°20.064 2°59.735 -999 -999 -999 -999 -999
2008-09-16 08:12:20 51°20.076 2°59.779 -999 -999 -999 -999 -999
2008-09-16 08:12:30 51°20.086 2°59.823 -999 -999 -999 -999 -999
2008-09-16 08:12:40 51°20.097 2°59.867 -999 -999 -999 -999 -999
2008-09-16 08:12:50 51°20.108 2°59.911 -999 -999 -999 -999 -999
2008-09-16 08:13:00 51°20.12 2°59.955 -999 -999 -999 -999 -999
2008-09-16 08:13:10 51°20.13 2°59.999 -999 -999 -999 -999 -999
2008-09-16 08:13:20 51°20.139 3°0.044 -999 -999 -999 -999 -999
2008-09-16 08:13:30 51°20.148 3°0.089 -999 -999 -999 -999 -999
2008-09-16 08:13:40 51°20.158 3°0.135 -999 -999 -999 -999 -999
2008-09-16 08:13:50 51°20.167 3°0.18 -999 -999 -999 -999 -999
2008-09-16 08:14:00 51°20.176 3°0.225 -999 -999 -999 -999 -999
2008-09-16 08:14:10 51°20.186 3°0.27 -999 -999 -999 -999 -999
2008-09-16 08:14:20 51°20.195 3°0.315 -999 -999 -999 -999 -999
2008-09-16 08:14:30 51°20.204 3°0.36 -999 -999 -999 -999 -999
2008-09-16 08:14:40 51°20.214 3°0.405 -999 -999 -999 -999 -999
2008-09-16 08:14:50 51°20.223 3°0.449 -999 -999 -999 -999 -999
2008-09-16 08:15:00 51°20.233 3°0.493 -999 -999 -999 -999 -999
2008-09-16 08:15:10 51°20.243 3°0.537 -999 -999 -999 -999 -999
2008-09-16 08:15:20 51°20.253 3°0.581 -999 -999 -999 -999 -999
2008-09-16 08:15:30 51°20.264 3°0.624 -999 -999 -999 -999 -999
2008-09-16 08:15:40 51°20.276 3°0.666 -999 -999 -999 -999 -999
2008-09-16 08:15:50 51°20.288 3°0.708 -999 -999 -999 -999 -999
2008-09-16 08:16:00 51°20.3 3°0.75 -999 -999 -999 -999 -999
2008-09-16 08:16:10 51°20.311 3°0.792 -999 -999 -999 -999 -999
2008-09-16 08:16:20 51°20.322 3°0.834 -999 -999 -999 -999 -999
2008-09-16 08:16:30 51°20.332 3°0.877 -999 -999 -999 -999 -999
2008-09-16 08:16:40 51°20.342 3°0.921 -999 -999 -999 -999 -999
2008-09-16 08:16:50 51°20.352 3°0.964 -999 -999 -999 -999 -999
2008-09-16 08:17:00 51°20.361 3°1.008 -999 -999 -999 -999 -999
2008-09-16 08:17:10 51°20.37 3°1.052 -999 -999 -999 -999 -999
2008-09-16 08:17:20 51°20.38 3°1.095 -999 -999 -999 -999 -999
2008-09-16 08:17:30 51°20.389 3°1.138 -999 -999 -999 -999 -999
2008-09-16 08:17:40 51°20.398 3°1.182 -999 -999 -999 -999 -999
2008-09-16 08:17:50 51°20.408 3°1.225 -999 -999 -999 -999 -999
2008-09-16 08:18:00 51°20.416 3°1.268 -999 -999 -999 -999 -999
2008-09-16 08:18:10 51°20.425 3°1.312 -999 -999 -999 -999 -999
2008-09-16 08:18:20 51°20.433 3°1.356 -999 -999 -999 -999 -999
2008-09-16 08:18:30 51°20.442 3°1.4 -999 -999 -999 -999 -999
2008-09-16 08:18:40 51°20.451 3°1.442 -999 -999 -999 -999 -999
2008-09-16 08:18:50 51°20.463 3°1.484 -999 -999 -999 -999 -999
2008-09-16 08:19:00 51°20.474 3°1.526 -999 -999 -999 -999 -999
2008-09-16 08:19:10 51°20.485 3°1.568 -999 -999 -999 -999 -999
2008-09-16 08:19:20 51°20.496 3°1.61 -999 -999 -999 -999 -999
2008-09-16 08:19:30 51°20.508 3°1.652 -999 -999 -999 -999 -999
2008-09-16 08:19:40 51°20.519 3°1.694 -999 -999 -999 -999 -999
2008-09-16 08:19:50 51°20.53 3°1.736 -999 -999 -999 -999 -999
2008-09-16 08:20:00 51°20.541 3°1.779 -999 -999 -999 -999 -999
2008-09-16 08:20:10 51°20.551 3°1.822 -999 -999 -999 -999 -999
2008-09-16 08:20:20 51°20.562 3°1.865 -999 -999 -999 -999 -999
2008-09-16 08:20:30 51°20.572 3°1.908 -999 -999 -999 -999 -999
2008-09-16 08:20:40 51°20.583 3°1.951 -999 -999 -999 -999 -999
2008-09-16 08:20:50 51°20.593 3°1.994 -999 -999 -999 -999 -999
2008-09-16 08:21:00 51°20.604 3°2.038 -999 -999 -999 -999 -999
2008-09-16 08:21:10 51°20.615 3°2.081 -999 -999 -999 -999 -999
2008-09-16 08:21:20 51°20.626 3°2.124 -999 -999 -999 -999 -999
2008-09-16 08:21:30 51°20.636 3°2.167 -999 -999 -999 -999 -999
2008-09-16 08:21:40 51°20.646 3°2.211 -999 -999 -999 -999 -999
2008-09-16 08:21:50 51°20.657 3°2.254 -999 -999 -999 -999 -999
2008-09-16 08:22:00 51°20.668 3°2.298 -999 -999 -999 -999 -999
2008-09-16 08:22:10 51°20.679 3°2.341 -999 -999 -999 -999 -999
2008-09-16 08:22:20 51°20.689 3°2.385 -999 -999 -999 -999 -999
2008-09-16 08:22:30 51°20.7 3°2.428 -999 -999 -999 -999 -999
2008-09-16 08:22:40 51°20.711 3°2.471 -999 -999 -999 -999 -999
2008-09-16 08:22:50 51°20.721 3°2.515 -999 -999 -999 -999 -999
2008-09-16 08:23:00 51°20.732 3°2.559 -999 -999 -999 -999 -999
2008-09-16 08:23:10 51°20.742 3°2.603 -999 -999 -999 -999 -999
2008-09-16 08:23:20 51°20.751 3°2.648 -999 -999 -999 -999 -999
2008-09-16 08:23:30 51°20.76 3°2.693 -999 -999 -999 -999 -999
2008-09-16 08:23:40 51°20.77 3°2.738 -999 -999 -999 -999 -999
2008-09-16 08:23:50 51°20.779 3°2.783 -999 -999 -999 -999 -999
2008-09-16 08:24:00 51°20.788 3°2.828 -999 -999 -999 -999 -999
2008-09-16 08:24:10 51°20.797 3°2.873 -999 -999 -999 -999 -999
2008-09-16 08:24:20 51°20.806 3°2.918 -999 -999 -999 -999 -999
2008-09-16 08:24:30 51°20.816 3°2.963 -999 -999 -999 -999 -999
2008-09-16 08:24:40 51°20.826 3°3.008 -999 -999 -999 -999 -999
2008-09-16 08:24:50 51°20.836 3°3.052 -999 -999 -999 -999 -999
2008-09-16 08:25:00 51°20.846 3°3.097 -999 -999 -999 -999 -999
2008-09-16 08:25:10 51°20.856 3°3.141 -999 -999 -999 -999 -999
2008-09-16 08:25:20 51°20.866 3°3.186 -999 -999 -999 -999 -999
2008-09-16 08:25:30 51°20.877 3°3.231 -999 -999 -999 -999 -999
2008-09-16 08:25:40 51°20.887 3°3.276 -999 -999 -999 -999 -999
2008-09-16 08:25:50 51°20.897 3°3.32 -999 -999 -999 -999 -999
2008-09-16 08:26:00 51°20.908 3°3.365 -999 -999 -999 -999 -999
2008-09-16 08:26:10 51°20.917 3°3.41 -999 -999 -999 -999 -999
2008-09-16 08:26:20 51°20.928 3°3.455 -999 -999 -999 -999 -999
2008-09-16 08:26:30 51°20.938 3°3.5 -999 -999 -999 -999 -999
2008-09-16 08:26:40 51°20.948 3°3.545 -999 -999 -999 -999 -999
2008-09-16 08:26:50 51°20.959 3°3.59 -999 -999 -999 -999 -999
2008-09-16 08:27:00 51°20.97 3°3.634 -999 -999 -999 -999 -999
2008-09-16 08:27:10 51°20.98 3°3.679 -999 -999 -999 -999 -999
2008-09-16 08:27:20 51°20.991 3°3.723 -999 -999 -999 -999 -999
2008-09-16 08:27:30 51°21.002 3°3.768 -999 -999 -999 -999 -999
2008-09-16 08:27:40 51°21.013 3°3.812 -999 -999 -999 -999 -999
2008-09-16 08:27:50 51°21.024 3°3.857 -999 -999 -999 -999 -999
2008-09-16 08:28:00 51°21.035 3°3.901 -999 -999 -999 -999 -999
2008-09-16 08:28:10 51°21.047 3°3.945 -999 -999 -999 -999 -999
2008-09-16 08:28:20 51°21.06 3°3.988 -999 -999 -999 -999 -999
2008-09-16 08:28:30 51°21.072 3°4.031 -999 -999 -999 -999 -999
2008-09-16 08:28:40 51°21.085 3°4.074 -999 -999 -999 -999 -999
2008-09-16 08:28:50 51°21.097 3°4.117 -999 -999 -999 -999 -999
2008-09-16 08:29:00 51°21.109 3°4.161 -999 -999 -999 -999 -999
2008-09-16 08:29:10 51°21.122 3°4.204 -999 -999 -999 -999 -999
2008-09-16 08:29:20 51°21.134 3°4.247 -999 -999 -999 -999 -999
2008-09-16 08:29:30 51°21.146 3°4.29 -999 -999 -999 -999 -999
2008-09-16 08:29:40 51°21.159 3°4.334 -999 -999 -999 -999 -999
2008-09-16 08:29:50 51°21.171 3°4.377 -999 -999 -999 -999 -999
2008-09-16 08:30:00 51°21.182 3°4.421 -999 -999 -999 -999 -999
2008-09-16 08:30:10 51°21.194 3°4.465 -999 -999 -999 -999 -999
2008-09-16 08:30:20 51°21.206 3°4.508 -999 -999 -999 -999 -999
2008-09-16 08:30:30 51°21.217 3°4.552 -999 -999 -999 -999 -999
2008-09-16 08:30:40 51°21.227 3°4.591 -999 -999 -999 -999 -999
2008-09-16 08:30:50 51°21.238 3°4.64 -999 -999 -999 -999 -999
2008-09-16 08:31:00 51°21.248 3°4.684 -999 -999 -999 -999 -999
2008-09-16 08:31:10 51°21.258 3°4.73 -999 -999 -999 -999 -999
2008-09-16 08:31:20 51°21.268 3°4.774 -999 -999 -999 -999 -999
2008-09-16 08:31:30 51°21.277 3°4.815 -999 -999 -999 -999 -999
2008-09-16 08:31:40 51°21.288 3°4.864 -999 -999 -999 -999 -999
2008-09-16 08:31:50 51°21.298 3°4.908 -999 -999 -999 -999 -999
2008-09-16 08:32:00 51°21.308 3°4.953 -999 -999 -999 -999 -999
2008-09-16 08:32:10 51°21.318 3°4.998 -999 -999 -999 -999 -999
2008-09-16 08:32:20 51°21.328 3°5.042 -999 -999 -999 -999 -999
2008-09-16 08:32:30 51°21.338 3°5.087 -999 -999 -999 -999 -999
2008-09-16 08:32:40 51°21.349 3°5.132 -999 -999 -999 -999 -999
2008-09-16 08:32:50 51°21.358 3°5.171 -999 -999 -999 -999 -999
2008-09-16 08:33:00 51°21.37 3°5.22 -999 -999 -999 -999 -999
2008-09-16 08:33:10 51°21.38 3°5.265 -999 -999 -999 -999 -999
2008-09-16 08:33:20 51°21.391 3°5.309 -999 -999 -999 -999 -999
2008-09-16 08:33:30 51°21.401 3°5.353 -999 -999 -999 -999 -999
2008-09-16 08:33:40 51°21.411 3°5.397 -999 -999 -999 -999 -999
2008-09-16 08:33:50 51°21.422 3°5.442 -999 -999 -999 -999 -999
2008-09-16 08:34:00 51°21.432 3°5.486 -999 -999 -999 -999 -999
2008-09-16 08:34:10 51°21.443 3°5.53 -999 -999 -999 -999 -999
2008-09-16 08:34:20 51°21.454 3°5.574 -999 -999 -999 -999 -999
2008-09-16 08:34:30 51°21.464 3°5.618 -999 -999 -999 -999 -999
2008-09-16 08:34:40 51°21.475 3°5.663 -999 -999 -999 -999 -999
2008-09-16 08:34:50 51°21.485 3°5.707 -999 -999 -999 -999 -999
2008-09-16 08:35:00 51°21.495 3°5.747 -999 -999 -999 -999 -999
2008-09-16 08:35:10 51°21.507 3°5.796 -999 -999 -999 -999 -999
2008-09-16 08:35:20 51°21.518 3°5.84 -999 -999 -999 -999 -999
2008-09-16 08:35:30 51°21.529 3°5.885 -999 -999 -999 -999 -999
2008-09-16 08:35:40 51°21.541 3°5.928 -999 -999 -999 -999 -999
2008-09-16 08:35:50 51°21.554 3°5.971 -999 -999 -999 -999 -999
2008-09-16 08:36:00 51°21.566 3°6.009 -999 -999 -999 -999 -999
2008-09-16 08:36:10 51°21.579 3°6.052 -999 -999 -999 -999 -999
2008-09-16 08:36:20 51°21.593 3°6.099 -999 -999 -999 -999 -999
2008-09-16 08:36:30 51°21.606 3°6.142 -999 -999 -999 -999 -999
2008-09-16 08:36:40 51°21.618 3°6.185 -999 -999 -999 -999 -999
2008-09-16 08:36:50 51°21.629 3°6.229 -999 -999 -999 -999 -999
2008-09-16 08:37:00 51°21.639 3°6.274 -999 -999 -999 -999 -999
2008-09-16 08:37:10 51°21.65 3°6.318 -999 -999 -999 -999 -999
2008-09-16 08:37:20 51°21.66 3°6.363 -999 -999 -999 -999 -999
2008-09-16 08:37:30 51°21.671 3°6.407 -999 -999 -999 -999 -999
2008-09-16 08:37:40 51°21.682 3°6.452 -999 -999 -999 -999 -999
2008-09-16 08:37:50 51°21.693 3°6.496 -999 -999 -999 -999 -999
2008-09-16 08:38:00 51°21.704 3°6.541 -999 -999 -999 -999 -999
2008-09-16 08:38:10 51°21.715 3°6.585 -999 -999 -999 -999 -999
2008-09-16 08:38:20 51°21.726 3°6.63 -999 -999 -999 -999 -999
2008-09-16 08:38:30 51°21.738 3°6.679 -999 -999 -999 -999 -999
2008-09-16 08:38:40 51°21.748 3°6.72 -999 -999 -999 -999 -999
2008-09-16 08:38:50 51°21.759 3°6.764 -999 -999 -999 -999 -999
2008-09-16 08:39:00 51°21.769 3°6.809 -999 -999 -999 -999 -999
2008-09-16 08:39:10 51°21.78 3°6.853 -999 -999 -999 -999 -999
2008-09-16 08:39:20 51°21.789 3°6.899 -999 -999 -999 -999 -999
2008-09-16 08:39:30 51°21.799 3°6.949 -999 -999 -999 -999 -999
2008-09-16 08:39:40 51°21.806 3°6.991 -999 -999 -999 -999 -999
2008-09-16 08:39:50 51°21.815 3°7.037 -999 -999 -999 -999 -999
2008-09-16 08:40:00 51°21.823 3°7.083 -999 -999 -999 -999 -999
2008-09-16 08:40:10 51°21.831 3°7.129 -999 -999 -999 -999 -999
2008-09-16 08:40:20 51°21.839 3°7.175 -999 -999 -999 -999 -999
2008-09-16 08:40:30 51°21.846 3°7.221 -999 -999 -999 -999 -999
2008-09-16 08:40:40 51°21.854 3°7.267 -999 -999 -999 -999 -999
2008-09-16 08:40:50 51°21.862 3°7.313 -999 -999 -999 -999 -999
2008-09-16 08:41:00 51°21.87 3°7.358 -999 -999 -999 -999 -999
2008-09-16 08:41:10 51°21.878 3°7.404 -999 -999 -999 -999 -999
2008-09-16 08:41:20 51°21.885 3°7.45 -999 -999 -999 -999 -999
2008-09-16 08:41:30 51°21.891 3°7.497 -999 -999 -999 -999 -999
2008-09-16 08:41:40 51°21.896 3°7.543 -999 -999 -999 -999 -999
2008-09-16 08:41:50 51°21.9 3°7.59 -999 -999 -999 -999 -999
2008-09-16 08:42:00 51°21.902 3°7.638 -999 -999 -999 -999 -999
2008-09-16 08:42:10 51°21.903 3°7.686 -999 -999 -999 -999 -999
2008-09-16 08:42:20 51°21.904 3°7.734 -999 -999 -999 -999 -999
2008-09-16 08:42:30 51°21.904 3°7.782 -999 -999 -999 -999 -999
2008-09-16 08:42:40 51°21.904 3°7.831 -999 -999 -999 -999 -999
2008-09-16 08:42:50 51°21.904 3°7.879 -999 -999 -999 -999 -999
2008-09-16 08:43:00 51°21.904 3°7.923 -999 -999 -999 -999 -999
2008-09-16 08:43:10 51°21.906 3°7.976 -999 -999 -999 -999 -999
2008-09-16 08:43:20 51°21.909 3°8.024 -999 -999 -999 -999 -999
2008-09-16 08:43:30 51°21.911 3°8.072 -999 -999 -999 -999 -999
2008-09-16 08:43:40 51°21.913 3°8.12 -999 -999 -999 -999 -999
2008-09-16 08:43:50 51°21.916 3°8.169 -999 -999 -999 -999 -999
2008-09-16 08:44:00 51°21.92 3°8.217 -999 -999 -999 -999 -999
2008-09-16 08:44:10 51°21.924 3°8.265 -999 -999 -999 -999 -999
2008-09-16 08:44:20 51°21.927 3°8.308 -999 -999 -999 -999 -999
2008-09-16 08:44:30 51°21.931 3°8.362 -999 -999 -999 -999 -999
2008-09-16 08:44:40 51°21.935 3°8.41 -999 -999 -999 -999 -999
2008-09-16 08:44:50 51°21.939 3°8.459 -999 -999 -999 -999 -999
2008-09-16 08:45:00 51°21.943 3°8.507 -999 -999 -999 -999 -999
2008-09-16 08:45:10 51°21.946 3°8.555 -999 -999 -999 -999 -999
2008-09-16 08:45:20 51°21.949 3°8.604 -999 -999 -999 -999 -999
2008-09-16 08:45:30 51°21.951 3°8.653 -999 -999 -999 -999 -999
2008-09-16 08:45:40 51°21.951 3°8.686 -999 -999 -999 -999 -999
2008-09-16 08:45:50 51°21.95 3°8.717 -999 -999 -999 -999 -999
2008-09-16 08:46:00 51°21.948 3°8.742 -999 -999 -999 -999 -999
2008-09-16 08:46:10 51°21.945 3°8.763 -999 -999 -999 -999 -999
2008-09-16 08:46:20 51°21.942 3°8.779 -999 -999 -999 -999 -999
2008-09-16 08:46:30 51°21.938 3°8.796 -999 -999 -999 -999 -999
2008-09-16 08:46:40 51°21.934 3°8.809 -999 -999 -999 -999 -999
2008-09-16 08:46:50 51°21.929 3°8.82 -999 -999 -999 -999 -999
2008-09-16 08:47:00 51°21.925 3°8.832 -999 -999 -999 -999 -999
2008-09-16 08:47:10 51°21.921 3°8.841 -999 -999 -999 -999 -999
2008-09-16 08:47:20 51°21.917 3°8.85 -999 -999 -999 -999 -999
2008-09-16 08:47:30 51°21.914 3°8.859 -999 -999 -999 -999 -999
2008-09-16 08:47:40 51°21.91 3°8.866 -999 -999 -999 -999 -999
2008-09-16 08:47:50 51°21.907 3°8.872 -999 -999 -999 -999 -999
2008-09-16 08:48:00 51°21.904 3°8.879 -999 -999 -999 -999 -999
2008-09-16 08:48:10 51°21.901 3°8.884 -999 -999 -999 -999 -999
2008-09-16 08:48:20 51°21.899 3°8.889 -999 -999 -999 -999 -999
2008-09-16 08:48:30 51°21.896 3°8.893 -999 -999 -999 -999 -999
2008-09-16 08:48:40 51°21.894 3°8.897 -999 -999 -999 -999 -999
2008-09-16 08:48:50 51°21.891 3°8.901 -999 -999 -999 -999 -999
2008-09-16 08:49:00 51°21.888 3°8.906 -999 -999 -999 -999 -999
2008-09-16 08:49:10 51°21.885 3°8.911 -999 -999 -999 -999 -999
2008-09-16 08:49:20 51°21.881 3°8.916 -999 -999 -999 -999 -999
2008-09-16 08:49:30 51°21.876 3°8.921 -999 -999 -999 -999 -999
2008-09-16 08:49:40 51°21.87 3°8.925 -999 -999 -999 -999 -999
2008-09-16 08:49:50 51°21.863 3°8.927 -999 -999 -999 -999 -999
2008-09-16 08:50:00 51°21.855 3°8.929 -999 -999 -999 -999 -999
2008-09-16 08:50:10 51°21.846 3°8.929 -999 -999 -999 -999 -999
2008-09-16 08:50:20 51°21.839 3°8.927 -999 -999 -999 -999 -999
2008-09-16 08:50:30 51°21.83 3°8.923 -999 -999 -999 -999 -999
2008-09-16 08:50:40 51°21.82 3°8.917 -999 -999 -999 -999 -999
2008-09-16 08:50:50 51°21.813 3°8.911 -999 -999 -999 -999 -999
2008-09-16 08:51:00 51°21.804 3°8.901 -999 -999 -999 -999 -999
2008-09-16 08:51:10 51°21.797 3°8.89 -999 -999 -999 -999 -999
2008-09-16 08:51:20 51°21.79 3°8.878 -999 -999 -999 -999 -999
2008-09-16 08:51:30 51°21.784 3°8.864 -999 -999 -999 -999 -999
2008-09-16 08:51:40 51°21.778 3°8.848 -999 -999 -999 -999 -999
2008-09-16 08:51:50 51°21.773 3°8.831 -999 -999 -999 -999 -999
2008-09-16 08:52:00 51°21.769 3°8.814 -999 -999 -999 -999 -999
2008-09-16 08:52:10 51°21.766 3°8.798 -999 -999 -999 -999 -999
2008-09-16 08:52:20 51°21.763 3°8.777 -999 -999 -999 -999 -999
2008-09-16 08:52:30 51°21.76 3°8.759 -999 -999 -999 -999 -999
2008-09-16 08:52:40 51°21.758 3°8.74 -999 -999 -999 -999 -999
2008-09-16 08:52:50 51°21.757 3°8.721 -999 -999 -999 -999 -999
2008-09-16 08:53:00 51°21.756 3°8.7 -999 -999 -999 -999 -999
2008-09-16 08:53:10 51°21.755 3°8.682 -999 -999 -999 -999 -999
2008-09-16 08:53:20 51°21.755 3°8.661 -999 -999 -999 -999 -999
2008-09-16 08:53:30 51°21.756 3°8.645 -999 -999 -999 -999 -999
2008-09-16 08:53:40 51°21.756 3°8.626 -999 -999 -999 -999 -999
2008-09-16 08:53:50 51°21.757 3°8.608 -999 -999 -999 -999 -999
2008-09-16 08:54:00 51°21.757 3°8.59 -999 -999 -999 -999 -999
2008-09-16 08:54:10 51°21.758 3°8.572 -999 -999 -999 -999 -999
2008-09-16 08:54:20 51°21.758 3°8.554 -999 -999 -999 -999 -999
2008-09-16 08:54:30 51°21.759 3°8.536 -999 -999 -999 -999 -999
2008-09-16 08:54:40 51°21.759 3°8.518 -999 -999 -999 -999 -999
2008-09-16 08:54:50 51°21.759 3°8.5 -999 -999 -999 -999 -999
2008-09-16 08:55:00 51°21.76 3°8.482 -999 -999 -999 -999 -999
2008-09-16 08:55:10 51°21.76 3°8.464 -999 -999 -999 -999 -999
2008-09-16 08:55:20 51°21.76 3°8.447 -999 -999 -999 -999 -999
2008-09-16 08:55:30 51°21.76 3°8.429 -999 -999 -999 -999 -999
2008-09-16 08:55:40 51°21.761 3°8.411 -999 -999 -999 -999 -999
2008-09-16 08:55:50 51°21.761 3°8.393 -999 -999 -999 -999 -999
2008-09-16 08:56:00 51°21.761 3°8.376 -999 -999 -999 -999 -999
2008-09-16 08:56:10 51°21.761 3°8.358 -999 -999 -999 -999 -999
2008-09-16 08:56:20 51°21.761 3°8.34 -999 -999 -999 -999 -999
2008-09-16 08:56:30 51°21.762 3°8.322 -999 -999 -999 -999 -999
2008-09-16 08:56:40 51°21.762 3°8.305 -999 -999 -999 -999 -999
2008-09-16 08:56:50 51°21.762 3°8.287 -999 -999 -999 -999 -999
2008-09-16 08:57:00 51°21.763 3°8.269 -999 -999 -999 -999 -999
2008-09-16 08:57:10 51°21.763 3°8.252 -999 -999 -999 -999 -999
2008-09-16 08:57:20 51°21.764 3°8.234 -999 -999 -999 -999 -999
2008-09-16 08:57:30 51°21.764 3°8.217 -999 -999 -999 -999 -999
2008-09-16 08:57:40 51°21.765 3°8.199 -999 -999 -999 -999 -999
2008-09-16 08:57:50 51°21.766 3°8.182 -999 -999 -999 -999 -999
2008-09-16 08:58:00 51°21.766 3°8.165 -999 -999 -999 -999 -999
2008-09-16 08:58:10 51°21.767 3°8.147 -999 -999 -999 -999 -999
2008-09-16 08:58:20 51°21.768 3°8.128 -999 -999 -999 -999 -999
2008-09-16 08:58:30 51°21.768 3°8.11 -999 -999 -999 -999 -999
2008-09-16 08:58:40 51°21.768 3°8.095 -999 -999 -999 -999 -999
2008-09-16 08:58:50 51°21.769 3°8.077 -999 -999 -999 -999 -999
2008-09-16 08:59:00 51°21.769 3°8.06 -999 -999 -999 -999 -999
2008-09-16 08:59:10 51°21.77 3°8.042 -999 -999 -999 -999 -999
2008-09-16 08:59:20 51°21.771 3°8.025 -999 -999 -999 -999 -999
2008-09-16 08:59:30 51°21.771 3°8.008 -999 -999 -999 -999 -999
2008-09-16 08:59:40 51°21.772 3°7.991 -999 -999 -999 -999 -999
2008-09-16 08:59:50 51°21.773 3°7.974 -999 -999 -999 -999 -999
2008-09-16 09:00:00 51°21.774 3°7.957 -999 -999 -999 -999 -999
2008-09-16 09:00:10 51°21.774 3°7.94 -999 -999 -999 -999 -999
2008-09-16 09:00:20 51°21.775 3°7.923 -999 -999 -999 -999 -999
2008-09-16 09:00:30 51°21.776 3°7.905 -999 -999 -999 -999 -999
2008-09-16 09:00:40 51°21.777 3°7.888 -999 -999 -999 -999 -999
2008-09-16 09:00:50 51°21.778 3°7.871 -999 -999 -999 -999 -999
2008-09-16 09:01:00 51°21.779 3°7.854 -999 -999 -999 -999 -999
2008-09-16 09:01:10 51°21.78 3°7.837 -999 -999 -999 -999 -999
2008-09-16 09:01:20 51°21.78 3°7.82 -999 -999 -999 -999 -999
2008-09-16 09:01:30 51°21.781 3°7.803 -999 -999 -999 -999 -999
2008-09-16 09:01:40 51°21.782 3°7.786 -999 -999 -999 -999 -999
2008-09-16 09:01:50 51°21.783 3°7.769 -999 -999 -999 -999 -999
2008-09-16 09:02:00 51°21.784 3°7.752 -999 -999 -999 -999 -999
2008-09-16 09:02:10 51°21.784 3°7.735 -999 -999 -999 -999 -999
2008-09-16 09:02:20 51°21.785 3°7.718 -999 -999 -999 -999 -999
2008-09-16 09:02:30 51°21.786 3°7.701 -999 -999 -999 -999 -999
2008-09-16 09:02:40 51°21.786 3°7.684 -999 -999 -999 -999 -999
2008-09-16 09:02:50 51°21.787 3°7.667 -999 -999 -999 -999 -999
2008-09-16 09:03:00 51°21.788 3°7.65 -999 -999 -999 -999 -999
2008-09-16 09:03:10 51°21.789 3°7.633 -999 -999 -999 -999 -999
2008-09-16 09:03:20 51°21.79 3°7.616 -999 -999 -999 -999 -999
2008-09-16 09:03:30 51°21.79 3°7.599 -999 -999 -999 -999 -999
2008-09-16 09:03:40 51°21.791 3°7.582 -999 -999 -999 -999 -999
2008-09-16 09:03:50 51°21.792 3°7.565 -999 -999 -999 -999 -999
2008-09-16 09:04:00 51°21.793 3°7.548 -999 -999 -999 -999 -999
2008-09-16 09:04:10 51°21.794 3°7.531 -999 -999 -999 -999 -999
2008-09-16 09:04:20 51°21.794 3°7.514 -999 -999 -999 -999 -999
2008-09-16 09:04:30 51°21.795 3°7.496 -999 -999 -999 -999 -999
2008-09-16 09:04:40 51°21.796 3°7.479 -999 -999 -999 -999 -999
2008-09-16 09:04:50 51°21.796 3°7.462 -999 -999 -999 -999 -999
2008-09-16 09:05:00 51°21.797 3°7.445 -999 -999 -999 -999 -999
2008-09-16 09:05:10 51°21.798 3°7.428 -999 -999 -999 -999 -999
2008-09-16 09:05:20 51°21.799 3°7.41 -999 -999 -999 -999 -999
2008-09-16 09:05:30 51°21.8 3°7.393 -999 -999 -999 -999 -999
2008-09-16 09:05:40 51°21.801 3°7.376 -999 -999 -999 -999 -999
2008-09-16 09:05:50 51°21.802 3°7.359 -999 -999 -999 -999 -999
2008-09-16 09:06:00 51°21.803 3°7.341 -999 -999 -999 -999 -999
2008-09-16 09:06:10 51°21.804 3°7.324 -999 -999 -999 -999 -999
2008-09-16 09:06:20 51°21.805 3°7.307 -999 -999 -999 -999 -999
2008-09-16 09:06:30 51°21.806 3°7.29 -999 -999 -999 -999 -999
2008-09-16 09:06:40 51°21.806 3°7.272 -999 -999 -999 -999 -999
2008-09-16 09:06:50 51°21.807 3°7.255 -999 -999 -999 -999 -999
2008-09-16 09:07:00 51°21.808 3°7.238 -999 -999 -999 -999 -999
2008-09-16 09:07:10 51°21.809 3°7.22 -999 -999 -999 -999 -999
2008-09-16 09:07:20 51°21.81 3°7.203 -999 -999 -999 -999 -999
2008-09-16 09:07:30 51°21.811 3°7.186 -999 -999 -999 -999 -999
2008-09-16 09:07:40 51°21.812 3°7.168 -999 -999 -999 -999 -999
2008-09-16 09:07:50 51°21.813 3°7.15 -999 -999 -999 -999 -999
2008-09-16 09:08:00 51°21.814 3°7.133 -999 -999 -999 -999 -999
2008-09-16 09:08:10 51°21.815 3°7.116 -999 -999 -999 -999 -999
2008-09-16 09:08:20 51°21.815 3°7.098 -999 -999 -999 -999 -999
2008-09-16 09:08:30 51°21.816 3°7.08 -999 -999 -999 -999 -999
2008-09-16 09:08:40 51°21.817 3°7.063 -999 -999 -999 -999 -999
2008-09-16 09:08:50 51°21.817 3°7.045 -999 -999 -999 -999 -999
2008-09-16 09:09:00 51°21.818 3°7.028 -999 -999 -999 -999 -999
2008-09-16 09:09:10 51°21.818 3°7.01 -999 -999 -999 -999 -999
2008-09-16 09:09:20 51°21.818 3°6.992 -999 -999 -999 -999 -999
2008-09-16 09:09:30 51°21.818 3°6.975 -999 -999 -999 -999 -999
2008-09-16 09:09:40 51°21.819 3°6.957 -999 -999 -999 -999 -999
2008-09-16 09:09:50 51°21.819 3°6.939 -999 -999 -999 -999 -999
2008-09-16 09:10:00 51°21.819 3°6.921 -999 -999 -999 -999 -999
2008-09-16 09:10:10 51°21.819 3°6.903 -999 -999 -999 -999 -999
2008-09-16 09:10:20 51°21.819 3°6.886 -999 -999 -999 -999 -999
2008-09-16 09:10:30 51°21.819 3°6.868 -999 -999 -999 -999 -999
2008-09-16 09:10:40 51°21.819 3°6.85 -999 -999 -999 -999 -999
2008-09-16 09:10:50 51°21.819 3°6.832 -999 -999 -999 -999 -999
2008-09-16 09:11:00 51°21.819 3°6.814 -999 -999 -999 -999 -999
2008-09-16 09:11:10 51°21.819 3°6.796 -999 -999 -999 -999 -999
2008-09-16 09:11:20 51°21.819 3°6.778 -999 -999 -999 -999 -999
2008-09-16 09:11:30 51°21.818 3°6.76 -999 -999 -999 -999 -999
2008-09-16 09:11:40 51°21.818 3°6.743 -999 -999 -999 -999 -999
2008-09-16 09:11:50 51°21.817 3°6.725 -999 -999 -999 -999 -999
2008-09-16 09:12:00 51°21.817 3°6.707 -999 -999 -999 -999 -999
2008-09-16 09:12:10 51°21.816 3°6.689 -999 -999 -999 -999 -999
2008-09-16 09:12:20 51°21.815 3°6.67 -999 -999 -999 -999 -999
2008-09-16 09:12:30 51°21.815 3°6.652 -999 -999 -999 -999 -999
2008-09-16 09:12:40 51°21.814 3°6.634 -999 -999 -999 -999 -999
2008-09-16 09:12:50 51°21.813 3°6.616 -999 -999 -999 -999 -999
2008-09-16 09:13:00 51°21.812 3°6.598 -999 -999 -999 -999 -999
2008-09-16 09:13:10 51°21.812 3°6.579 -999 -999 -999 -999 -999
2008-09-16 09:13:20 51°21.811 3°6.561 -999 -999 -999 -999 -999
2008-09-16 09:13:30 51°21.81 3°6.543 -999 -999 -999 -999 -999
2008-09-16 09:13:40 51°21.81 3°6.525 -999 -999 -999 -999 -999
2008-09-16 09:13:50 51°21.809 3°6.507 -999 -999 -999 -999 -999
2008-09-16 09:14:00 51°21.809 3°6.489 -999 -999 -999 -999 -999
2008-09-16 09:14:10 51°21.808 3°6.47 -999 -999 -999 -999 -999
2008-09-16 09:14:20 51°21.808 3°6.452 -999 -999 -999 -999 -999
2008-09-16 09:14:30 51°21.807 3°6.434 -999 -999 -999 -999 -999
2008-09-16 09:14:40 51°21.807 3°6.416 -999 -999 -999 -999 -999
2008-09-16 09:14:50 51°21.806 3°6.398 -999 -999 -999 -999 -999
2008-09-16 09:15:00 51°21.806 3°6.38 -999 -999 -999 -999 -999
2008-09-16 09:15:10 51°21.805 3°6.361 -999 -999 -999 -999 -999
2008-09-16 09:15:20 51°21.805 3°6.343 -999 -999 -999 -999 -999
2008-09-16 09:15:30 51°21.804 3°6.325 -999 -999 -999 -999 -999
2008-09-16 09:15:40 51°21.804 3°6.307 -999 -999 -999 -999 -999
2008-09-16 09:15:50 51°21.803 3°6.288 -999 -999 -999 -999 -999
2008-09-16 09:16:00 51°21.803 3°6.27 -999 -999 -999 -999 -999
2008-09-16 09:16:10 51°21.802 3°6.252 -999 -999 -999 -999 -999
2008-09-16 09:16:20 51°21.802 3°6.234 -999 -999 -999 -999 -999
2008-09-16 09:16:30 51°21.801 3°6.215 -999 -999 -999 -999 -999
2008-09-16 09:16:40 51°21.801 3°6.197 -999 -999 -999 -999 -999
2008-09-16 09:16:50 51°21.8 3°6.179 -999 -999 -999 -999 -999
2008-09-16 09:17:00 51°21.8 3°6.161 -999 -999 -999 -999 -999
2008-09-16 09:17:10 51°21.799 3°6.143 -999 -999 -999 -999 -999
2008-09-16 09:17:20 51°21.799 3°6.125 -999 -999 -999 -999 -999
2008-09-16 09:17:30 51°21.798 3°6.106 -999 -999 -999 -999 -999
2008-09-16 09:17:40 51°21.798 3°6.088 -999 -999 -999 -999 -999
2008-09-16 09:17:50 51°21.797 3°6.07 -999 -999 -999 -999 -999
2008-09-16 09:18:00 51°21.797 3°6.052 -999 -999 -999 -999 -999
2008-09-16 09:18:10 51°21.796 3°6.034 -999 -999 -999 -999 -999
2008-09-16 09:18:20 51°21.796 3°6.016 -999 -999 -999 -999 -999
2008-09-16 09:18:30 51°21.795 3°5.997 -999 -999 -999 -999 -999
2008-09-16 09:18:40 51°21.795 3°5.979 -999 -999 -999 -999 -999
2008-09-16 09:18:50 51°21.794 3°5.961 -999 -999 -999 -999 -999
2008-09-16 09:19:00 51°21.793 3°5.943 -999 -999 -999 -999 -999
2008-09-16 09:19:10 51°21.793 3°5.925 -999 -999 -999 -999 -999
2008-09-16 09:19:20 51°21.792 3°5.907 -999 -999 -999 -999 -999
2008-09-16 09:19:30 51°21.792 3°5.889 -999 -999 -999 -999 -999
2008-09-16 09:19:40 51°21.791 3°5.871 -999 -999 -999 -999 -999
2008-09-16 09:19:50 51°21.79 3°5.853 -999 -999 -999 -999 -999
2008-09-16 09:20:00 51°21.79 3°5.835 -999 -999 -999 -999 -999
2008-09-16 09:20:10 51°21.789 3°5.817 -999 -999 -999 -999 -999
2008-09-16 09:20:20 51°21.789 3°5.799 -999 -999 -999 -999 -999
2008-09-16 09:20:30 51°21.788 3°5.78 -999 -999 -999 -999 -999
2008-09-16 09:20:40 51°21.787 3°5.762 -999 -999 -999 -999 -999
2008-09-16 09:20:50 51°21.787 3°5.744 -999 -999 -999 -999 -999
2008-09-16 09:21:00 51°21.786 3°5.726 -999 -999 -999 -999 -999
2008-09-16 09:21:10 51°21.786 3°5.707 -999 -999 -999 -999 -999
2008-09-16 09:21:20 51°21.785 3°5.689 -999 -999 -999 -999 -999
2008-09-16 09:21:30 51°21.785 3°5.671 -999 -999 -999 -999 -999
2008-09-16 09:21:40 51°21.785 3°5.653 -999 -999 -999 -999 -999
2008-09-16 09:21:50 51°21.784 3°5.635 -999 -999 -999 -999 -999
2008-09-16 09:22:00 51°21.784 3°5.617 -999 -999 -999 -999 -999
2008-09-16 09:22:10 51°21.783 3°5.598 -999 -999 -999 -999 -999
2008-09-16 09:22:20 51°21.783 3°5.58 -999 -999 -999 -999 -999
2008-09-16 09:22:30 51°21.783 3°5.562 -999 -999 -999 -999 -999
2008-09-16 09:22:40 51°21.782 3°5.544 -999 -999 -999 -999 -999
2008-09-16 09:22:50 51°21.782 3°5.525 -999 -999 -999 -999 -999
2008-09-16 09:23:00 51°21.781 3°5.507 -999 -999 -999 -999 -999
2008-09-16 09:23:10 51°21.781 3°5.489 -999 -999 -999 -999 -999
2008-09-16 09:23:20 51°21.781 3°5.471 -999 -999 -999 -999 -999
2008-09-16 09:23:30 51°21.78 3°5.452 -999 -999 -999 -999 -999
2008-09-16 09:23:40 51°21.78 3°5.434 -999 -999 -999 -999 -999
2008-09-16 09:23:50 51°21.78 3°5.416 -999 -999 -999 -999 -999
2008-09-16 09:24:00 51°21.779 3°5.397 -999 -999 -999 -999 -999
2008-09-16 09:24:10 51°21.779 3°5.379 -999 -999 -999 -999 -999
2008-09-16 09:24:20 51°21.778 3°5.361 -999 -999 -999 -999 -999
2008-09-16 09:24:30 51°21.778 3°5.342 -999 -999 -999 -999 -999
2008-09-16 09:24:40 51°21.778 3°5.324 -999 -999 -999 -999 -999
2008-09-16 09:24:50 51°21.777 3°5.306 -999 -999 -999 -999 -999
2008-09-16 09:25:00 51°21.777 3°5.288 -999 -999 -999 -999 -999
2008-09-16 09:25:10 51°21.777 3°5.27 -999 -999 -999 -999 -999
2008-09-16 09:25:20 51°21.777 3°5.252 -999 -999 -999 -999 -999
2008-09-16 09:25:30 51°21.778 3°5.235 -999 -999 -999 -999 -999
2008-09-16 09:25:40 51°21.78 3°5.218 -999 -999 -999 -999 -999
2008-09-16 09:25:50 51°21.782 3°5.203 -999 -999 -999 -999 -999
2008-09-16 09:26:00 51°21.785 3°5.189 -999 -999 -999 -999 -999
2008-09-16 09:26:10 51°21.789 3°5.177 -999 -999 -999 -999 -999
2008-09-16 09:26:20 51°21.794 3°5.166 -999 -999 -999 -999 -999
2008-09-16 09:26:30 51°21.798 3°5.156 -999 -999 -999 -999 -999
2008-09-16 09:26:40 51°21.802 3°5.148 -999 -999 -999 -999 -999
2008-09-16 09:26:50 51°21.806 3°5.14 -999 -999 -999 -999 -999
2008-09-16 09:27:00 51°21.81 3°5.132 -999 -999 -999 -999 -999
2008-09-16 09:27:10 51°21.813 3°5.125 -999 -999 -999 -999 -999
2008-09-16 09:27:20 51°21.816 3°5.118 -999 -999 -999 -999 -999
2008-09-16 09:27:30 51°21.818 3°5.111 -999 -999 -999 -999 -999
2008-09-16 09:27:40 51°21.821 3°5.105 -999 -999 -999 -999 -999
2008-09-16 09:27:50 51°21.823 3°5.098 -999 -999 -999 -999 -999
2008-09-16 09:28:00 51°21.825 3°5.092 -999 -999 -999 -999 -999
2008-09-16 09:28:10 51°21.827 3°5.086 -999 -999 -999 -999 -999
2008-09-16 09:28:20 51°21.829 3°5.08 -999 -999 -999 -999 -999
2008-09-16 09:28:30 51°21.831 3°5.074 -999 -999 -999 -999 -999
2008-09-16 09:28:40 51°21.832 3°5.068 -999 -999 -999 -999 -999
2008-09-16 09:28:50 51°21.834 3°5.063 -999 -999 -999 -999 -999
2008-09-16 09:29:00 51°21.835 3°5.057 -999 -999 -999 -999 -999
2008-09-16 09:29:10 51°21.836 3°5.052 -999 -999 -999 -999 -999
2008-09-16 09:29:20 51°21.837 3°5.045 -999 -999 -999 -999 -999
2008-09-16 09:29:30 51°21.838 3°5.04 -999 -999 -999 -999 -999
2008-09-16 09:29:40 51°21.839 3°5.034 -999 -999 -999 -999 -999
2008-09-16 09:29:50 51°21.84 3°5.028 -999 -999 -999 -999 -999
2008-09-16 09:30:00 51°21.841 3°5.023 -999 -999 -999 -999 -999
2008-09-16 09:30:10 51°21.841 3°5.017 -999 -999 -999 -999 -999
2008-09-16 09:30:20 51°21.842 3°5.011 -999 -999 -999 -999 -999
2008-09-16 09:30:30 51°21.842 3°5.006 -999 -999 -999 -999 -999
2008-09-16 09:30:40 51°21.842 3°5 -999 -999 -999 -999 -999
2008-09-16 09:30:50 51°21.843 3°4.994 -999 -999 -999 -999 -999
2008-09-16 09:31:00 51°21.843 3°4.988 -999 -999 -999 -999 -999
2008-09-16 09:31:10 51°21.843 3°4.982 -999 -999 -999 -999 -999
2008-09-16 09:31:20 51°21.843 3°4.976 -999 -999 -999 -999 -999
2008-09-16 09:31:30 51°21.843 3°4.97 -999 -999 -999 -999 -999
2008-09-16 09:31:40 51°21.843 3°4.965 -999 -999 -999 -999 -999
2008-09-16 09:31:50 51°21.842 3°4.959 -999 -999 -999 -999 -999
2008-09-16 09:32:00 51°21.842 3°4.953 -999 -999 -999 -999 -999
2008-09-16 09:32:10 51°21.842 3°4.948 -999 -999 -999 -999 -999
2008-09-16 09:32:20 51°21.842 3°4.942 -999 -999 -999 -999 -999
2008-09-16 09:32:30 51°21.842 3°4.937 -999 -999 -999 -999 -999
2008-09-16 09:32:40 51°21.842 3°4.931 -999 -999 -999 -999 -999
2008-09-16 09:32:50 51°21.843 3°4.926 -999 -999 -999 -999 -999
2008-09-16 09:33:00 51°21.843 3°4.921 -999 -999 -999 -999 -999
2008-09-16 09:33:10 51°21.844 3°4.916 -999 -999 -999 -999 -999
2008-09-16 09:33:20 51°21.846 3°4.912 -999 -999 -999 -999 -999
2008-09-16 09:33:30 51°21.847 3°4.909 -999 -999 -999 -999 -999
2008-09-16 09:33:40 51°21.848 3°4.906 -999 -999 -999 -999 -999
2008-09-16 09:33:50 51°21.849 3°4.904 -999 -999 -999 -999 -999
2008-09-16 09:34:00 51°21.851 3°4.903 -999 -999 -999 -999 -999
2008-09-16 09:34:10 51°21.852 3°4.902 -999 -999 -999 -999 -999
2008-09-16 09:34:20 51°21.852 3°4.901 -999 -999 -999 -999 -999
2008-09-16 09:34:30 51°21.853 3°4.902 -999 -999 -999 -999 -999
2008-09-16 09:34:40 51°21.854 3°4.905 -999 -999 -999 -999 -999
2008-09-16 09:34:50 51°21.855 3°4.91 -999 -999 -999 -999 -999
2008-09-16 09:35:00 51°21.856 3°4.918 -999 -999 -999 -999 -999
2008-09-16 09:35:10 51°21.856 3°4.927 -999 -999 -999 -999 -999
2008-09-16 09:35:20 51°21.855 3°4.939 -999 -999 -999 -999 -999
2008-09-16 09:35:30 51°21.853 3°4.953 -999 -999 -999 -999 -999
2008-09-16 09:35:40 51°21.849 3°4.967 -999 -999 -999 -999 -999
2008-09-16 09:35:50 51°21.845 3°4.981 -999 -999 -999 -999 -999
2008-09-16 09:36:00 51°21.839 3°4.995 -999 -999 -999 -999 -999
2008-09-16 09:36:10 51°21.834 3°5.009 -999 -999 -999 -999 -999
2008-09-16 09:36:20 51°21.828 3°5.022 -999 -999 -999 -999 -999
2008-09-16 09:36:30 51°21.823 3°5.036 -999 -999 -999 -999 -999
2008-09-16 09:36:40 51°21.819 3°5.05 -999 -999 -999 -999 -999
2008-09-16 09:36:50 51°21.816 3°5.064 -999 -999 -999 -999 -999
2008-09-16 09:37:00 51°21.813 3°5.078 -999 -999 -999 -999 -999
2008-09-16 09:37:10 51°21.811 3°5.092 -999 -999 -999 -999 -999
2008-09-16 09:37:20 51°21.809 3°5.106 -999 -999 -999 -999 -999
2008-09-16 09:37:30 51°21.807 3°5.121 -999 -999 -999 -999 -999
2008-09-16 09:37:40 51°21.804 3°5.135 -999 -999 -999 -999 -999
2008-09-16 09:37:50 51°21.8 3°5.149 -999 -999 -999 -999 -999
2008-09-16 09:38:00 51°21.797 3°5.163 -999 -999 -999 -999 -999
2008-09-16 09:38:10 51°21.794 3°5.178 -999 -999 -999 -999 -999
2008-09-16 09:38:20 51°21.791 3°5.192 -999 -999 -999 -999 -999
2008-09-16 09:38:30 51°21.788 3°5.206 -999 -999 -999 -999 -999
2008-09-16 09:38:40 51°21.785 3°5.22 -999 -999 -999 -999 -999
2008-09-16 09:38:50 51°21.783 3°5.234 -999 -999 -999 -999 -999
2008-09-16 09:39:00 51°21.781 3°5.247 -999 -999 -999 -999 -999
2008-09-16 09:39:10 51°21.779 3°5.261 -999 -999 -999 -999 -999
2008-09-16 09:39:20 51°21.778 3°5.274 -999 -999 -999 -999 -999
2008-09-16 09:39:30 51°21.777 3°5.288 -999 -999 -999 -999 -999
2008-09-16 09:39:40 51°21.775 3°5.302 -999 -999 -999 -999 -999
2008-09-16 09:39:50 51°21.774 3°5.316 -999 -999 -999 -999 -999
2008-09-16 09:40:00 51°21.773 3°5.329 -999 -999 -999 -999 -999
2008-09-16 09:40:10 51°21.773 3°5.343 -999 -999 -999 -999 -999
2008-09-16 09:40:20 51°21.773 3°5.356 -999 -999 -999 -999 -999
2008-09-16 09:40:30 51°21.773 3°5.37 -999 -999 -999 -999 -999
2008-09-16 09:40:40 51°21.775 3°5.382 -999 -999 -999 -999 -999
2008-09-16 09:40:50 51°21.776 3°5.396 -999 -999 -999 -999 -999
2008-09-16 09:41:00 51°21.778 3°5.409 -999 -999 -999 -999 -999
2008-09-16 09:41:10 51°21.779 3°5.422 -999 -999 -999 -999 -999
2008-09-16 09:41:20 51°21.781 3°5.435 -999 -999 -999 -999 -999
2008-09-16 09:41:30 51°21.782 3°5.448 -999 -999 -999 -999 -999
2008-09-16 09:41:40 51°21.783 3°5.462 -999 -999 -999 -999 -999
2008-09-16 09:41:50 51°21.783 3°5.475 -999 -999 -999 -999 -999
2008-09-16 09:42:00 51°21.782 3°5.489 -999 -999 -999 -999 -999
2008-09-16 09:42:10 51°21.78 3°5.502 -999 -999 -999 -999 -999
2008-09-16 09:42:20 51°21.777 3°5.515 -999 -999 -999 -999 -999
2008-09-16 09:42:30 51°21.774 3°5.528 -999 -999 -999 -999 -999
2008-09-16 09:42:40 51°21.769 3°5.541 -999 -999 -999 -999 -999
2008-09-16 09:42:50 51°21.763 3°5.552 -999 -999 -999 -999 -999
2008-09-16 09:43:00 51°21.757 3°5.564 -999 -999 -999 -999 -999
2008-09-16 09:43:10 51°21.75 3°5.574 -999 -999 -999 -999 -999
2008-09-16 09:43:20 51°21.742 3°5.584 -999 -999 -999 -999 -999
2008-09-16 09:43:30 51°21.733 3°5.592 -999 -999 -999 -999 -999
2008-09-16 09:43:40 51°21.724 3°5.6 -999 -999 -999 -999 -999
2008-09-16 09:43:50 51°21.715 3°5.607 -999 -999 -999 -999 -999
2008-09-16 09:44:00 51°21.706 3°5.613 -999 -999 -999 -999 -999
2008-09-16 09:44:10 51°21.697 3°5.619 -999 -999 -999 -999 -999
2008-09-16 09:44:20 51°21.689 3°5.624 -999 -999 -999 -999 -999
2008-09-16 09:44:30 51°21.681 3°5.629 -999 -999 -999 -999 -999
2008-09-16 09:44:40 51°21.674 3°5.634 -999 -999 -999 -999 -999
2008-09-16 09:44:50 51°21.667 3°5.639 -999 -999 -999 -999 -999
2008-09-16 09:45:00 51°21.659 3°5.643 -999 -999 -999 -999 -999
2008-09-16 09:45:10 51°21.652 3°5.648 -999 -999 -999 -999 -999
2008-09-16 09:45:20 51°21.645 3°5.652 -999 -999 -999 -999 -999
2008-09-16 09:45:30 51°21.638 3°5.657 -999 -999 -999 -999 -999
2008-09-16 09:45:40 51°21.631 3°5.662 -999 -999 -999 -999 -999
2008-09-16 09:45:50 51°21.624 3°5.666 -999 -999 -999 -999 -999
2008-09-16 09:46:00 51°21.617 3°5.671 -999 -999 -999 -999 -999
2008-09-16 09:46:10 51°21.61 3°5.676 -999 -999 -999 -999 -999
2008-09-16 09:46:20 51°21.603 3°5.681 -999 -999 -999 -999 -999
2008-09-16 09:46:30 51°21.596 3°5.686 -999 -999 -999 -999 -999
2008-09-16 09:46:40 51°21.589 3°5.69 -999 -999 -999 -999 -999
2008-09-16 09:46:50 51°21.582 3°5.695 -999 -999 -999 -999 -999
2008-09-16 09:47:00 51°21.575 3°5.7 -999 -999 -999 -999 -999
2008-09-16 09:47:10 51°21.568 3°5.705 -999 -999 -999 -999 -999
2008-09-16 09:47:20 51°21.561 3°5.71 -999 -999 -999 -999 -999
2008-09-16 09:47:30 51°21.554 3°5.715 -999 -999 -999 -999 -999
2008-09-16 09:47:40 51°21.547 3°5.72 -999 -999 -999 -999 -999
2008-09-16 09:47:50 51°21.54 3°5.725 -999 -999 -999 -999 -999
2008-09-16 09:48:00 51°21.533 3°5.73 -999 -999 -999 -999 -999
2008-09-16 09:48:10 51°21.526 3°5.734 -999 -999 -999 -999 -999
2008-09-16 09:48:20 51°21.519 3°5.739 -999 -999 -999 -999 -999
2008-09-16 09:48:30 51°21.512 3°5.744 -999 -999 -999 -999 -999
2008-09-16 09:48:40 51°21.504 3°5.749 -999 -999 -999 -999 -999
2008-09-16 09:48:50 51°21.498 3°5.754 -999 -999 -999 -999 -999
2008-09-16 09:49:00 51°21.491 3°5.758 -999 -999 -999 -999 -999
2008-09-16 09:49:10 51°21.483 3°5.763 -999 -999 -999 -999 -999
2008-09-16 09:49:20 51°21.476 3°5.768 -999 -999 -999 -999 -999
2008-09-16 09:49:30 51°21.469 3°5.773 -999 -999 -999 -999 -999
2008-09-16 09:49:40 51°21.462 3°5.778 -999 -999 -999 -999 -999
2008-09-16 09:49:50 51°21.455 3°5.782 -999 -999 -999 -999 -999
2008-09-16 09:50:00 51°21.448 3°5.787 -999 -999 -999 -999 -999
2008-09-16 09:50:10 51°21.441 3°5.792 -999 -999 -999 -999 -999
2008-09-16 09:50:20 51°21.434 3°5.796 -999 -999 -999 -999 -999
2008-09-16 09:50:30 51°21.426 3°5.801 -999 -999 -999 -999 -999
2008-09-16 09:50:40 51°21.419 3°5.805 -999 -999 -999 -999 -999
2008-09-16 09:50:50 51°21.412 3°5.81 -999 -999 -999 -999 -999
2008-09-16 09:51:00 51°21.405 3°5.815 -999 -999 -999 -999 -999
2008-09-16 09:51:10 51°21.398 3°5.82 -999 -999 -999 -999 -999
2008-09-16 09:51:20 51°21.391 3°5.824 -999 -999 -999 -999 -999
2008-09-16 09:51:30 51°21.384 3°5.829 -999 -999 -999 -999 -999
2008-09-16 09:51:40 51°21.376 3°5.834 -999 -999 -999 -999 -999
2008-09-16 09:51:50 51°21.369 3°5.839 -999 -999 -999 -999 -999
2008-09-16 09:52:00 51°21.362 3°5.844 -999 -999 -999 -999 -999
2008-09-16 09:52:10 51°21.355 3°5.848 -999 -999 -999 -999 -999
2008-09-16 09:52:20 51°21.348 3°5.853 -999 -999 -999 -999 -999
2008-09-16 09:52:30 51°21.341 3°5.858 -999 -999 -999 -999 -999
2008-09-16 09:52:40 51°21.334 3°5.863 -999 -999 -999 -999 -999
2008-09-16 09:52:50 51°21.327 3°5.868 -999 -999 -999 -999 -999
2008-09-16 09:53:00 51°21.32 3°5.873 -999 -999 -999 -999 -999
2008-09-16 09:53:10 51°21.313 3°5.877 -999 -999 -999 -999 -999
2008-09-16 09:53:20 51°21.306 3°5.883 -999 -999 -999 -999 -999
2008-09-16 09:53:30 51°21.3 3°5.888 -999 -999 -999 -999 -999
2008-09-16 09:53:40 51°21.293 3°5.893 -999 -999 -999 -999 -999
2008-09-16 09:53:50 51°21.286 3°5.898 -999 -999 -999 -999 -999
2008-09-16 09:54:00 51°21.279 3°5.904 -999 -999 -999 -999 -999
2008-09-16 09:54:10 51°21.273 3°5.909 -999 -999 -999 -999 -999
2008-09-16 09:54:20 51°21.266 3°5.915 -999 -999 -999 -999 -999
2008-09-16 09:54:30 51°21.259 3°5.92 -999 -999 -999 -999 -999
2008-09-16 09:54:40 51°21.252 3°5.925 -999 -999 -999 -999 -999
2008-09-16 09:54:50 51°21.245 3°5.931 -999 -999 -999 -999 -999
2008-09-16 09:55:00 51°21.238 3°5.936 -999 -999 -999 -999 -999
2008-09-16 09:55:10 51°21.231 3°5.941 -999 -999 -999 -999 -999
2008-09-16 09:55:20 51°21.225 3°5.946 -999 -999 -999 -999 -999